Torna al catalogo

FOSSASAT2E19

TAT-E

AttivoComunicazioniSSO
NORAD 62676·PAYLOAD·🇪🇸 Spain

Lanciato Jan 14, 2025 da Vandenberg Space Force Base

Loading…

Prossimi Passaggi (prossime 24 ore)

TLE

AggiornatoSource: Space-Track

Epoca: Sep 13, 2026, 18:30 UTC

1 62676U 25009BV  26256.77131062  .00001897  00000-0  87281-4 0  9996
2 62676  97.3903 333.4619 0006071  42.9213 317.2496 15.21537592 92164

Traccia FOSSASAT2E19 in tempo reale con AllMySat

Download on the App Store